Regional Weather Roundup
Issued by NWS

Home | Current Version | Previous Version | Graphics & Text | Print | Product List | Glossary On
Versions: 1 2 3 4 5 6 7 8 9 10 11 12 13 14 15 16 17 18 19 20 21 22 23 24 25 26 27 28 29 30 31 32 33 34 35 36 37 38 39 40 41 42 43 44 45 46 47 48 49 50
009
ASUS43 KLSX 160207
RWRMO

WEATHER SUMMARY FOR MISSOURI
NATIONAL WEATHER SERVICE SPRINGFIELD MO
900 PM CDT TUE AUG 15 2017

NOTE: "FAIR" INDICATES FEW OR NO CLOUDS BELOW 12,000 FEET WITH NO
       SIGNIFICANT WEATHER AND/OR OBSTRUCTIONS TO VISIBILITY.
       CURRENT SKY AND/OR WEATHER CONDITIONS ARE NOT AVAILABLE FOR
       CHILLICOTHE AND FARMINGTON.

MOZ001>031-035>038-043-044-053-054-160300-
...NORTHERN AND WESTERN MISSOURI...

CITY           SKY/WX    TMP DP  RH WIND       PRES   REMARKS
KANSAS CTY INT MOCLDY    80  71  74 SE10      29.85R
KANSAS C DTWN  CLEAR     84  72  67 E5        29.83R
LEE`S SUMMIT   CLOUDY    78  71  79 S8        29.85R
ST JOSEPH      CLEAR     80  71  74 SE8       29.84R
CHILLICOTHE      N/A     78  71  79 NE3       29.87R
KIRKSVILLE     CLEAR     73  67  81 E6        29.89R

$$
MOZ066>068-077>081-088>096-101>105-160300-
...SOUTHWEST MISSOURI...

CITY           SKY/WX    TMP DP  RH WIND       PRES   REMARKS
SPRINGFIELD    CLOUDY    79  72  79 SE9       29.88R
JOPLIN         LGT RAIN  82  76  81 SE5       29.86R
BRANSON        MOCLDY    77  73  88 SE7       29.90R

$$
MOZ032>034-039>042-045>050-055>058-069>072-160300-
...CENTRAL MISSOURI...

CITY           SKY/WX    TMP DP  RH WIND       PRES   REMARKS
COLUMBIA       CLEAR     79  70  74 E6        29.88R
JEFFERSON CITY CLEAR     80  74  81 SE5       29.85S
ROLLA          MOCLDY    77  72  84 SE8       29.90S
SEDALIA        CLEAR     77  74  90 E5        29.88R
WHITEMAN AFB   PTCLDY    77  77 100 SE5       29.85R
WARRENSBURG    CLOUDY    77  70  78 E3        29.85R
OSAGE BEACH    CLOUDY    78  71  79 E3        29.89R

$$
MOZ051-052-059>065-160300-
...EAST CENTRAL MISSOURI...

CITY           SKY/WX    TMP DP  RH WIND       PRES   REMARKS
ST LOUIS INTL  PTCLDY    82  70  66 E8        29.90R
SPIRIT OF STL  CLEAR     82  71  69 SE3       29.88R
ST CHARLES     CLEAR     77  71  82 E5        29.89R

$$
MOZ072>076-082>087-097>100-106>115-160300-
...SOUTH CENTRAL AND SOUTHEAST MISSOURI...

CITY           SKY/WX    TMP DP  RH WIND       PRES   REMARKS
CAPE GIRARDEAU CLEAR     76  72  87 S3        29.93R
FARMINGTON     CLEAR     76  71  85 S6        29.94R
POPLAR BLUFF   PTCLDY    76  73  91 SE5       29.93R
WEST PLAINS    CLEAR     77  72  84 SE7       29.94R

$$



USA.gov is the U.S. government's official web portal to all federal, state and local government web resources and services.